TimePDT,TemperatureF,Dew PointF,Humidity,Sea Level PressureIn,VisibilityMPH,Wind Direction,Wind SpeedMPH,Gust SpeedMPH,PrecipitationIn,Events,Conditions,WindDirDegrees,DateUTC
12:15 AM,51.1,50.0,96,29.97,4.0,WNW,8.1,-,N/A,,Overcast,300,2013-08-07 07:15:00
12:53 AM,51.1,50.0,96,29.97,3.0,WNW,8.1,-,N/A,,Overcast,290,2013-08-07 07:53:00
1:24 AM,51.1,50.0,96,29.97,5.0,WNW,8.1,-,N/A,,Overcast,290,2013-08-07 08:24:00
1:40 AM,51.1,50.0,96,29.97,1.8,WNW,8.1,-,N/A,,Overcast,290,2013-08-07 08:40:00
1:47 AM,51.8,50.0,94,29.97,2.0,WNW,6.9,-,N/A,,Overcast,290,2013-08-07 08:47:00
1:53 AM,52.0,50.0,93,29.98,1.8,West,9.2,-,N/A,,Overcast,280,2013-08-07 08:53:00
2:25 AM,52.0,50.0,93,29.98,2.0,WNW,6.9,-,N/A,,Overcast,290,2013-08-07 09:25:00
2:38 AM,52.0,51.1,97,29.98,1.5,WNW,6.9,-,N/A,,Overcast,290,2013-08-07 09:38:00
2:51 AM,51.8,51.8,100,29.99,2.0,WNW,6.9,-,N/A,,Overcast,290,2013-08-07 09:51:00
2:53 AM,52.0,51.1,97,29.99,1.8,WNW,6.9,-,N/A,,Overcast,290,2013-08-07 09:53:00
3:04 AM,52.0,51.1,97,29.99,2.5,West,6.9,-,N/A,,Overcast,280,2013-08-07 10:04:00
3:18 AM,52.0,51.1,97,29.99,4.0,West,8.1,-,N/A,,Overcast,280,2013-08-07 10:18:00
3:36 AM,52.0,51.1,97,29.99,2.0,West,6.9,-,N/A,,Overcast,280,2013-08-07 10:36:00
3:43 AM,52.0,51.1,97,29.99,1.5,West,6.9,-,N/A,,Overcast,270,2013-08-07 10:43:00
3:53 AM,52.0,50.0,93,29.99,1.5,West,8.1,-,N/A,,Overcast,280,2013-08-07 10:53:00
4:32 AM,51.1,51.1,100,29.98,3.0,West,4.6,-,N/A,,Overcast,280,2013-08-07 11:32:00
4:42 AM,51.1,50.0,96,29.98,1.8,West,4.6,-,N/A,,Overcast,280,2013-08-07 11:42:00
4:53 AM,51.1,50.0,96,29.99,2.0,West,4.6,-,N/A,,Overcast,280,2013-08-07 11:53:00
5:09 AM,51.1,50.0,96,29.98,1.0,WNW,4.6,-,N/A,,Mist,290,2013-08-07 12:09:00
5:17 AM,51.1,50.0,96,29.98,0.8,West,4.6,-,N/A,,Mist,280,2013-08-07 12:17:00
5:43 AM,51.1,50.0,96,29.99,0.2,WNW,5.8,-,N/A,Fog,Fog,290,2013-08-07 12:43:00
5:53 AM,51.1,50.0,96,29.99,0.2,WNW,6.9,-,N/A,Fog,Fog,290,2013-08-07 12:53:00
6:02 AM,51.1,50.0,96,29.98,0.2,West,5.8,-,N/A,Fog,Fog,280,2013-08-07 13:02:00
6:22 AM,51.1,50.0,96,29.99,0.2,West,4.6,-,N/A,Fog,Fog,280,2013-08-07 13:22:00
6:53 AM,51.1,50.0,96,29.99,0.2,WNW,4.6,-,N/A,Fog,Fog,290,2013-08-07 13:53:00
7:13 AM,51.1,50.0,96,30.00,0.8,West,6.9,-,N/A,,Overcast,280,2013-08-07 14:13:00
7:38 AM,52.0,51.1,97,30.00,1.5,West,4.6,-,N/A,,Overcast,280,2013-08-07 14:38:00
7:46 AM,52.0,51.1,97,30.01,2.0,West,5.8,-,N/A,,Overcast,280,2013-08-07 14:46:00
7:53 AM,52.0,51.1,97,30.01,1.2,West,5.8,-,N/A,,Overcast,270,2013-08-07 14:53:00
8:05 AM,52.0,51.1,97,30.01,3.0,NW,5.8,-,N/A,,Overcast,310,2013-08-07 15:05:00
8:53 AM,54.0,52.0,93,30.02,10.0,NW,3.5,-,N/A,,Scattered Clouds,310,2013-08-07 15:53:00
9:53 AM,61.0,52.0,72,30.02,10.0,NNW,5.8,-,N/A,,Clear,330,2013-08-07 16:53:00
10:53 AM,62.1,53.1,72,30.02,10.0,North,4.6,-,N/A,,Clear,360,2013-08-07 17:53:00
11:53 AM,62.1,53.1,72,30.03,10.0,WNW,6.9,-,N/A,,Clear,290,2013-08-07 18:53:00
12:53 PM,62.1,52.0,70,30.03,10.0,NW,6.9,-,N/A,,Clear,320,2013-08-07 19:53:00
1:53 PM,66.0,53.1,63,30.03,10.0,WNW,8.1,-,N/A,,Clear,300,2013-08-07 20:53:00
2:53 PM,68.0,54.0,61,30.02,10.0,Variable,5.8,-,N/A,,Clear,0,2013-08-07 21:53:00
3:53 PM,64.9,53.1,65,30.01,10.0,WNW,9.2,-,N/A,,Clear,300,2013-08-07 22:53:00
4:53 PM,64.9,54.0,68,30.00,10.0,NW,6.9,-,N/A,,Clear,310,2013-08-07 23:53:00
5:53 PM,66.9,55.0,66,29.99,10.0,NW,6.9,-,N/A,,Clear,310,2013-08-08 00:53:00
6:53 PM,64.0,54.0,70,29.98,10.0,NW,5.8,-,N/A,,Clear,320,2013-08-08 01:53:00
7:53 PM,57.9,53.1,84,29.98,10.0,West,4.6,-,N/A,,Clear,280,2013-08-08 02:53:00
8:53 PM,57.0,52.0,83,29.99,10.0,Calm,Calm,-,N/A,,Clear,0,2013-08-08 03:53:00
9:53 PM,55.0,52.0,89,30.00,10.0,Variable,6.9,-,N/A,,Clear,0,2013-08-08 04:53:00
10:53 PM,55.9,53.1,90,30.00,10.0,West,6.9,-,N/A,,Clear,280,2013-08-08 05:53:00
11:53 PM,57.0,54.0,89,30.00,10.0,WNW,10.4,-,N/A,,Clear,290,2013-08-08 06:53:00